カタログに戻る

COSMOS 1275 DEB

運用中PO
NORAD 42166·DEBRIS·🇷🇺 Russia

打ち上げ Jun 4, 1981 から Plesetsk Cosmodrome

Loading…

次のパス (今後24時間)

TLE

経年Source: Space-Track

元期: Sep 8, 2026, 02:45 UTC

1 42166U 81053SE  26251.11476943  .00001686  00000-0  10643-2 0  9994
2 42166  82.8855 183.2211 0138127 308.4836  50.4007 13.99114651647631

AllMySatでCOSMOS 1275 DEBをリアルタイム追跡

Download on the App Store